User: anonymous   Login
Location: Godiavel Galaoual
(15.2485°N, 12.6604°W)
Time: 18:29:42
(UTC+00:00)
Language:

A-11 Canister half - Orbit

View from above orbital plane
View from above orbital plane
View from above satellite
View from above satellite

Ground track
Ground track

The orbit data is extracted from the following two-line orbital elements,

1 00053U 60009E   21168.83891461 -.00000015  00000-0  69328-3 0  9999
2 00053  47.2736 212.1929 0096498  81.3850 279.7858 12.17254594713070
Epoch (UTC): 17 June 2021 20:08:02
Eccentricity: 0.0096498
inclination: 47.2736°
perigee height: 1527 km
apogee height: 1681 km
right ascension of ascending node: 212.1929°
argument of perigee: 81.3850°
revolutions per day: 12.17254594
mean anomaly at epoch: 279.7858°
orbit number at epoch: 71307

The dashed part of the orbit path shows where the satellite is in the earth's shadow,  

DLR